Saturday, August 18, 2018, 8:25 PM EDT
Back to Local

KROC, Greater Rochester International

Location: Rochester, NY, United States Lat: 43.117
Local Time: 8:25 PM EDT ( 0:25 GMT) Lon: -77.683
Time Zone: US/Eastern Elev: 557 ft

Show me the last for .
Show Decoded

2018-08-18 19:54 METAR KROC 182354Z 33004KT 10SM FEW028 FEW080 SCT160 BKN200 21/17 A2996 RMK AO2
                 SLP146 T02060172 10233 20206 53003 =
2018-08-18 18:54 METAR KROC 182254Z 34005KT 10SM FEW028 SCT140 OVC200 22/17 A2995 RMK AO2 SLP144
                 T02170172 =
2018-08-18 17:54 METAR KROC 182154Z 35004KT 10SM FEW028 SCT045 BKN200 23/17 A2995 RMK AO2 SLP143
                 T02280167 =
2018-08-18 16:54 METAR KROC 182054Z 36010KT 10SM FEW028 BKN035 BKN170 23/16 A2995 RMK AO2 SLP142
                 T02280161 58002 =
2018-08-18 16:01 METAR KROC 182001Z 01010KT 10SM FEW028 BKN035 BKN120 23/16 A2996 RMK AO2
                 T02280161 =
2018-08-18 15:54 METAR KROC 181954Z 03009KT 10SM FEW020 BKN028 BKN120 23/17 A2996 RMK AO2 SLP144
                 T02280167 =
2018-08-18 14:54 METAR KROC 181854Z 04010KT 10SM SCT024 BKN028 23/17 A2996 RMK AO2 SLP144
                 T02280167 =
2018-08-18 13:54 METAR KROC 181754Z 02013KT 10SM BKN019 OVC025 22/18 A2996 RMK AO2 SLP147 60002
                 T02170178 10217 20200 51005 =
2018-08-18 13:01 METAR KROC 181701Z 05010KT 10SM OVC018 21/17 A2996 RMK AO2 T02060172 =
2018-08-18 12:54 METAR KROC 181654Z 03011KT 10SM BKN014 OVC021 21/17 A2996 RMK AO2 SLP145
                 T02060172 =
2018-08-18 11:54 METAR KROC 181554Z 04010KT 10SM BKN014 OVC021 21/18 A2995 RMK AO2 SLP143
                 T02060183 =
2018-08-18 11:41 METAR KROC 181541Z 02010KT 10SM BKN014 OVC021 21/18 A2995 RMK AO2 T02060183 =
2018-08-18 10:54 METAR KROC 181454Z 03012KT 10SM SCT014 OVC023 21/19 A2995 RMK AO2 SLP140 60002
                 T02110189 53004 =
2018-08-18 09:54 METAR KROC 181354Z 02009KT 10SM SCT014 BKN021 OVC110 21/19 A2993 RMK AO2 RAE35
                 SLP136 P0000 T02060189 =
2018-08-18 08:54 METAR KROC 181254Z 03006KT 10SM -RA OVC018 20/19 A2993 RMK AO2 SLP136 P0002
                 T02000189 =
2018-08-18 08:26 METAR KROC 181226Z 03005KT 10SM -RA BKN018 BKN100 OVC110 20/19 A2993 RMK AO2
                 P0001 T02000189 =
2018-08-18 08:01 METAR KROC 181201Z 04008KT 10SM -RA FEW015 SCT024 OVC110 20/19 A2993 RMK AO2
                 P0000 T02000189 =
2018-08-18 07:54 METAR KROC 181154Z 04008KT 9SM -RA FEW015 BKN024 OVC110 20/19 A2993 RMK AO2
                 RAE01B38 SLP136 P0000 60045 70050 T02000189 10217 20194 53009 =
2018-08-18 07:47 METAR KROC 181147Z 04007KT 9SM -RA SCT014 BKN024 OVC110 20/19 A2993 RMK AO2
                 RAE01B38 P0000 T02000189 =
2018-08-18 06:54 METAR KROC 181054Z 02008KT 10SM -RA SCT007 BKN013 OVC065 20/19 A2992 RMK AO2
                 SLP130 P0001 T02000194 =
2018-08-18 06:47 METAR KROC 181047Z 02007KT 10SM -RA SCT007 BKN013 OVC065 20/19 A2991 RMK AO2
                 P0001 T02000194 =
2018-08-18 06:05 METAR KROC 181005Z 00000KT 10SM -RA FEW007 BKN075 OVC100 19/19 A2991 RMK AO2
                 P0000 T01940189 =
2018-08-18 05:54 METAR KROC 180954Z 12003KT 9SM -RA FEW013 SCT075 BKN100 19/19 A2991 RMK AO2
                 SLP127 P0005 T01940189 =
2018-08-18 04:54 METAR KROC 180854Z 06006KT 10SM -RA FEW007 BKN070 BKN110 19/19 A2991 RMK AO2
                 SLP126 P0020 60039 T01940189 50000 =
2018-08-18 04:44 METAR KROC 180844Z 06006KT 10SM -RA FEW007 SCT013 OVC070 19/19 A2991 RMK AO2
                 P0020 T01940189 =
2018-08-18 04:02 METAR KROC 180802Z 04004KT 4SM -RA BR FEW008 BKN013 OVC040 19/19 A2991 RMK AO2
                 P0004 T01940194 =
2018-08-18 03:58 METAR KROC 180758Z 05004KT 3SM -RA BR SCT013 BKN021 OVC038 19/19 A2991 =
2018-08-18 03:54 METAR KROC 180754Z 05006KT 2 1/2SM -RA BR FEW013 SCT021 OVC038 19/19 A2991 RMK
                 AO2 SLP127 P0011 T01940194 =
2018-08-18 03:50 METAR KROC 180750Z 04007KT 3SM -RA BR FEW013 BKN021 OVC036 19/19 A2991 RMK AO2
                 P0006 =
2018-08-18 02:54 METAR KROC 180654Z 06011KT 9SM -RA FEW018 BKN035 OVC100 20/19 A2990 RMK AO2
                 SLP126 P0008 T02000189 =
2018-08-18 02:50 METAR KROC 180650Z 05012KT 9SM -RA SCT018 BKN035 OVC100 20/19 A2990 RMK AO2
                 P0008 =
2018-08-18 02:27 METAR KROC 180627Z 05013KT 10SM -RA FEW007 BKN017 OVC036 21/19 A2990 RMK AO2
                 P0006 T02060194 =
2018-08-18 02:09 METAR KROC 180609Z 04013KT 6SM -RA BR SCT008 BKN013 OVC019 21/21 A2990 RMK AO2
                 P0004 T02110206 =
2018-08-18 01:54 METAR KROC 180554Z 03011KT 6SM -RA BR OVC011 22/21 A2990 RMK AO2 RAB21 SLP123
                 P0004 60004 T02170206 10256 20217 50000 =
2018-08-18 01:26 METAR KROC 180526Z 02011KT 10SM -RA OVC009 23/22 A2990 RMK AO2 RAB21 CIG 006V013
                 P0001 T02280217 =
2018-08-18 00:54 METAR KROC 180454Z 32005KT 10SM SCT007 BKN027 OVC042 23/22 A2990 RMK AO2 SLP120
                 T02280217 402830211 =
2018-08-17 23:54 METAR KROC 180354Z 29005KT 10SM SCT041 BKN100 BKN170 23/21 A2990 RMK AO2 SLP125
                 T02330211 =
2018-08-17 22:54 METAR KROC 180254Z 27011G16KT 10SM BKN110 BKN170 24/21 A2990 RMK AO2 SLP120
                 T02440211 50008 =
2018-08-17 22:22 METAR KROC 180222Z 26006KT 10SM SCT026 SCT033 BKN120 BKN170 24/22 A2990 RMK AO2
                 T02390217 =
2018-08-17 21:54 METAR KROC 180154Z 24006KT 10SM BKN029 BKN110 24/22 A2991 RMK AO2 SLP127
                 T02390217 =
2018-08-17 20:54 METAR KROC 180054Z 25007KT 10SM BKN050 BKN100 24/21 A2989 RMK AO2 SLP121
                 T02440211 =

Support USWX by starting your Amazon purchase here.